Location: Drawsko Pomorskie
(53.5317°N, 15.8111°E)
Time: 11:11:50
(UTC+01:00)

Envisat - Pass Details

Date: 20 October 2019
Orbit: 764 x 766 km, 98.1° (Epoch: 22 November)

Event Time Altitude Azimuth Distance (km) Brightness Sun altitude
Rises 19:31:01 0° 186° (S) 3,223 6.3 -15.7°
Reaches altitude 10° 19:33:28 10° 194° (SSW) 2,302 5.6 -16.1°
Maximum altitude 19:38:13 39° 264° (W) 1,134 4.5 -16.8°
Drops below altitude 10° 19:43:00 10° 333° (NNW) 2,317 5.9 -17.5°
Sets 19:45:28 0° 341° (NNW) 3,248 6.6 -17.8°
